| time (UTC) | temp F | wind direction | speed MPH | gust MPH | rain 1hr in | rain 24hr in | rain mn in | humidity % | barometer mb |
| 20260906083303 | 66 | 53 | 9.0 | 13.0 | 0.00 | 0.00 | 0.00 | 82 | 1016.8 |
| 20260906082757 | 66 | 64 | 7.0 | 11.0 | 0.00 | 0.00 | 0.00 | 82 | 1016.8 |
| 20260906082252 | 66 | 58 | 5.0 | 10.0 | 0.00 | 0.00 | 0.00 | 83 | 1017.0 |
| 20260906081748 | 67 | 62 | 7.0 | 11.0 | 0.00 | 0.00 | 0.00 | 82 | 1016.7 |
| 20260906081243 | 67 | 59 | 7.0 | 14.0 | 0.00 | 0.00 | 0.00 | 82 | 1016.9 |
| 20260906080740 | 67 | 45 | 9.0 | 13.0 | 0.00 | 0.00 | 0.00 | 82 | 1016.9 |
| 20260906080236 | 68 | 46 | 10.0 | 12.0 | 0.00 | 0.00 | 0.00 | 82 | 1016.9 |
| 20260906075736 | 67 | 68 | 13.0 | 14.0 | 0.00 | 0.00 | 0.00 | 83 | 1016.9 |
| 20260906075236 | 68 | 54 | 7.0 | 9.0 | 0.00 | 0.00 | 0.00 | 85 | 1017.1 |
| 20260906074731 | 68 | 44 | 8.0 | 15.0 | 0.00 | 0.00 | 0.00 | 85 | 1017.0 |
| 20260906074230 | 68 | 49 | 8.0 | 11.0 | 0.00 | 0.00 | 0.00 | 87 | 1016.7 |
| 20260906073730 | 68 | 51 | 9.0 | 11.0 | 0.00 | 0.00 | 0.00 | 89 | 1016.9 |
| 20260906073225 | 68 | 39 | 8.0 | 16.0 | 0.00 | 0.00 | 0.00 | 89 | 1016.9 |
| 20260906072721 | 68 | 57 | 6.0 | 13.0 | 0.00 | 0.00 | 0.00 | 90 | 1017.0 |
| 20260906072216 | 68 | 72 | 8.0 | 10.0 | 0.00 | 0.00 | 0.00 | 91 | 1017.0 |
| 20260906071712 | 68 | 64 | 9.0 | 12.0 | 0.00 | 0.00 | 0.00 | 91 | 1016.7 |
| 20260906071212 | 68 | 62 | 8.0 | 10.0 | 0.00 | 0.00 | 0.00 | 91 | 1017.0 |
| 20260906070709 | 68 | 75 | 7.0 | 9.0 | 0.00 | 0.00 | 0.00 | 91 | 1016.8 |
| 20260906070204 | 68 | 68 | 7.0 | 9.0 | 0.00 | 0.00 | 0.00 | 91 | 1016.7 |
| 20260906065704 | 69 | 58 | 7.0 | 12.0 | 0.00 | 0.00 | 0.00 | 90 | 1016.8 |
| 20260906065159 | 69 | 61 | 7.0 | 10.0 | 0.00 | 0.00 | 0.00 | 89 | 1016.6 |
| 20260906064655 | 69 | 68 | 7.0 | 9.0 | 0.00 | 0.00 | 0.00 | 89 | 1016.7 |
| 20260906064150 | 69 | 75 | 9.0 | 12.0 | 0.00 | 0.00 | 0.00 | 88 | 1016.5 |
| 20260906063645 | 69 | 66 | 9.0 | 15.0 | 0.00 | 0.00 | 0.00 | 87 | 1016.6 |
| 20260906063141 | 70 | 67 | 9.0 | 13.0 | 0.00 | 0.00 | 0.00 | 86 | 1016.7 |
| 20260906062637 | 70 | 80 | 4.0 | 13.0 | 0.00 | 0.00 | 0.00 | 86 | 1016.7 |
| 20260906062135 | 70 | 46 | 12.0 | 17.0 | 0.00 | 0.00 | 0.00 | 86 | 1016.6 |
| 20260906061632 | 70 | 47 | 9.0 | 17.0 | 0.00 | 0.00 | 0.00 | 86 | 1016.7 |
| 20260906061131 | 70 | 69 | 8.0 | 12.0 | 0.00 | 0.00 | 0.00 | 87 | 1016.7 |
| 20260906060628 | 70 | 61 | 9.0 | 10.0 | 0.00 | 0.00 | 0.00 | 87 | 1017.0 |
| 20260906060125 | 70 | 53 | 9.0 | 11.0 | 0.00 | 0.00 | 0.00 | 87 | 1016.4 |
| 20260906055621 | 71 | 55 | 7.0 | 14.0 | 0.00 | 0.00 | 0.00 | 86 | 1016.4 |
| 20260906055121 | 70 | 46 | 6.0 | 11.0 | 0.00 | 0.00 | 0.00 | 86 | 1016.4 |
| 20260906054616 | 71 | 63 | 8.0 | 11.0 | 0.00 | 0.00 | 0.00 | 86 | 1016.6 |
| 20260906054111 | 71 | 49 | 10.0 | 12.0 | 0.00 | 0.00 | 0.00 | 86 | 1016.2 |
| 20260906053608 | 70 | 69 | 9.0 | 10.0 | 0.00 | 0.00 | 0.00 | 87 | 1016.4 |
| 20260906053103 | 71 | 66 | 6.0 | 12.0 | 0.00 | 0.00 | 0.00 | 87 | 1016.3 |
| 20260906052558 | 71 | 60 | 9.0 | 13.0 | 0.00 | 0.00 | 0.00 | 87 | 1016.3 |
| 20260906052055 | 71 | 73 | 7.0 | 11.0 | 0.00 | 0.00 | 0.00 | 87 | 1016.2 |
| 20260906051556 | 71 | 39 | 7.0 | 11.0 | 0.00 | 0.00 | 0.00 | 87 | 1016.3 |
| 20260906051051 | 71 | 66 | 5.0 | 10.0 | 0.00 | 0.00 | 0.00 | 87 | 1016.1 |
| 20260906050546 | 71 | 65 | 9.0 | 11.0 | 0.00 | 0.00 | 0.00 | 87 | 1016.2 |
| 20260906050042 | 71 | 55 | 8.0 | 12.0 | 0.00 | 0.00 | 0.00 | 87 | 1015.9 |
| 20260906045539 | 71 | 57 | 9.0 | 12.0 | 0.00 | 0.00 | 0.00 | 86 | 1016.1 |
| 20260906045036 | 71 | 46 | 11.0 | 14.0 | 0.00 | 0.00 | 0.00 | 86 | 1016.1 |
| 20260906044531 | 71 | 53 | 11.0 | 15.0 | 0.00 | 0.00 | 0.00 | 86 | 1016.0 |
| 20260906044026 | 71 | 68 | 7.0 | 9.0 | 0.00 | 0.00 | 0.00 | 86 | 1015.8 |
| 20260906043522 | 71 | 64 | 9.0 | 13.0 | 0.00 | 0.00 | 0.00 | 85 | 1015.9 |
| 20260906043018 | 71 | 40 | 10.0 | 16.0 | 0.00 | 0.00 | 0.00 | 84 | 1015.8 |
| 20260906042516 | 72 | 74 | 14.0 | 19.0 | 0.00 | 0.00 | 0.00 | 84 | 1015.7 |
| 20260906042011 | 72 | 59 | 11.0 | 14.0 | 0.00 | 0.00 | 0.00 | 84 | 1015.8 |
| 20260906041508 | 72 | 53 | 13.0 | 14.0 | 0.00 | 0.00 | 0.00 | 85 | 1015.9 |
| 20260906041007 | 72 | 53 | 13.0 | 16.0 | 0.00 | 0.00 | 0.00 | 85 | 1015.9 |
| 20260906040502 | 72 | 73 | 8.0 | 13.0 | 0.00 | 0.00 | 0.00 | 86 | 1015.9 |
| 20260906035957 | 72 | 57 | 8.0 | 11.0 | 0.00 | 0.56 | 0.56 | 86 | 1015.8 |
| 20260906035453 | 72 | 61 | 11.0 | 11.0 | 0.00 | 0.56 | 0.56 | 86 | 1015.8 |
| 20260906034948 | 72 | 57 | 8.0 | 11.0 | 0.00 | 0.56 | 0.56 | 87 | 1015.5 |
| 20260906034443 | 72 | 58 | 7.0 | 11.0 | 0.00 | 0.56 | 0.56 | 87 | 1015.5 |
| 20260906033938 | 72 | 64 | 11.0 | 15.0 | 0.00 | 0.56 | 0.56 | 87 | 1015.7 |
| 20260906033438 | 72 | 50 | 8.0 | 11.0 | 0.00 | 0.56 | 0.56 | 87 | 1015.6 |
| 20260906032934 | 72 | 61 | 10.0 | 11.0 | 0.00 | 0.56 | 0.56 | 87 | 1015.7 |
| 20260906032431 | 72 | 51 | 8.0 | 15.0 | 0.00 | 0.56 | 0.56 | 87 | 1015.7 |
| 20260906031930 | 72 | 67 | 9.0 | 11.0 | 0.00 | 0.56 | 0.56 | 88 | 1015.8 |
| 20260906031426 | 72 | 74 | 10.0 | 11.0 | 0.00 | 0.56 | 0.56 | 89 | 1015.8 |
| 20260906030921 | 72 | 62 | 7.0 | 11.0 | 0.00 | 0.56 | 0.56 | 89 | 1015.9 |
| 20260906030416 | 72 | 77 | 8.0 | 10.0 | 0.00 | 0.56 | 0.56 | 90 | 1015.6 |
| 20260906025911 | 72 | 75 | 7.0 | 11.0 | 0.00 | 0.56 | 0.56 | 90 | 1015.5 |
| 20260906025411 | 72 | 55 | 9.0 | 10.0 | 0.00 | 0.56 | 0.56 | 90 | 1015.6 |
| 20260906024909 | 71 | 83 | 8.0 | 11.0 | 0.00 | 0.56 | 0.56 | 90 | 1015.5 |
| 20260906024409 | 72 | 59 | 7.0 | 15.0 | 0.00 | 0.56 | 0.56 | 91 | 1015.7 |
| 20260906023904 | 71 | 65 | 10.0 | 11.0 | 0.00 | 0.56 | 0.56 | 91 | 1015.3 |
| 20260906023401 | 72 | 63 | 12.0 | 14.0 | 0.00 | 0.56 | 0.56 | 92 | 1015.4 |
| 20260906022900 | 72 | 54 | 9.0 | 11.0 | 0.00 | 0.56 | 0.56 | 92 | 1015.3 |
| 20260906022355 | 72 | 67 | 12.0 | 14.0 | 0.00 | 0.56 | 0.56 | 92 | 1015.2 |
| 20260906021851 | 72 | 67 | 11.0 | 11.0 | 0.00 | 0.56 | 0.56 | 92 | 1015.1 |
| 20260906021350 | 72 | 42 | 11.0 | 14.0 | 0.00 | 0.56 | 0.56 | 92 | 1015.1 |
| 20260906020845 | 72 | 69 | 11.0 | 13.0 | 0.00 | 0.56 | 0.56 | 92 | 1015.2 |
| 20260906020345 | 72 | 68 | 9.0 | 13.0 | 0.00 | 0.56 | 0.56 | 92 | 1015.3 |
| 20260906015839 | 72 | 64 | 8.0 | 11.0 | 0.00 | 0.56 | 0.56 | 92 | 1015.3 |
| 20260906015339 | 72 | 75 | 16.0 | 16.0 | 0.00 | 0.56 | 0.56 | 92 | 1015.3 |
| 20260906014839 | 72 | 58 | 9.0 | 11.0 | 0.00 | 0.56 | 0.56 | 92 | 1015.0 |
| 20260906014333 | 72 | 43 | 8.0 | 13.0 | 0.00 | 0.56 | 0.56 | 92 | 1015.1 |
| 20260906013830 | 72 | 61 | 12.0 | 12.0 | 0.00 | 0.56 | 0.56 | 92 | 1014.8 |
| 20260906013325 | 72 | 56 | 13.0 | 13.0 | 0.00 | 0.56 | 0.56 | 92 | 1015.0 |
| 20260906012820 | 73 | 63 | 8.0 | 14.0 | 0.00 | 0.56 | 0.56 | 92 | 1014.9 |
| 20260906012321 | 73 | 42 | 13.0 | 15.0 | 0.00 | 0.56 | 0.56 | 92 | 1014.7 |
| 20260906011815 | 73 | 51 | 10.0 | 13.0 | 0.00 | 0.56 | 0.56 | 91 | 1014.5 |
| 20260906011315 | 73 | 37 | 12.0 | 16.0 | 0.00 | 0.56 | 0.56 | 91 | 1014.5 |
| 20260906010812 | 73 | 58 | 11.0 | 18.0 | 0.00 | 0.56 | 0.56 | 91 | 1014.4 |
| 20260906010308 | 73 | 47 | 11.0 | 15.0 | 0.00 | 0.56 | 0.56 | 90 | 1014.4 |
| 20260906005802 | 73 | 34 | 12.0 | 17.0 | 0.00 | 0.56 | 0.56 | 90 | 1014.5 |
| 20260906005301 | 74 | 54 | 8.0 | 15.0 | 0.00 | 0.56 | 0.56 | 90 | 1014.5 |
| 20260906004800 | 74 | 54 | 7.0 | 15.0 | 0.00 | 0.56 | 0.56 | 90 | 1014.6 |
| 20260906004255 | 74 | 41 | 11.0 | 14.0 | 0.00 | 0.56 | 0.56 | 90 | 1014.2 |
| 20260906003756 | 74 | 32 | 10.0 | 18.0 | 0.00 | 0.56 | 0.56 | 90 | 1014.3 |
| 20260906003251 | 74 | 57 | 11.0 | 17.0 | 0.00 | 0.56 | 0.56 | 90 | 1014.3 |
| 20260906002747 | 74 | 34 | 12.0 | 18.0 | 0.00 | 0.56 | 0.56 | 89 | 1014.3 |
| 20260906002246 | 74 | 49 | 11.0 | 16.0 | 0.00 | 0.56 | 0.56 | 89 | 1014.5 |
| 20260906001742 | 74 | 40 | 16.0 | 19.0 | 0.00 | 0.56 | 0.56 | 89 | 1014.2 |
| 20260906001237 | 75 | 41 | 14.0 | 19.0 | 0.00 | 0.56 | 0.56 | 89 | 1014.4 |
| 20260906000732 | 75 | 45 | 11.0 | 16.0 | 0.00 | 0.56 | 0.56 | 89 | 1014.3 |
| 20260906000234 | 75 | 31 | 11.0 | 21.0 | 0.00 | 0.56 | 0.56 | 89 | 1014.3 |
| 20260905235727 | 75 | 53 | 8.0 | 17.0 | 0.00 | 0.56 | 0.56 | 88 | 1014.3 |
| 20260905235227 | 75 | 26 | 11.0 | 17.0 | 0.00 | 0.56 | 0.56 | 88 | 1014.5 |
| 20260905234723 | 75 | 15 | 15.0 | 18.0 | 0.00 | 0.56 | 0.56 | 88 | 1014.6 |
| 20260905234218 | 75 | 43 | 13.0 | 24.0 | 0.00 | 0.56 | 0.56 | 89 | 1014.3 |
| 20260905233713 | 75 | 42 | 11.0 | 19.0 | 0.00 | 0.56 | 0.56 | 89 | 1014.0 |
| 20260905233212 | 76 | 48 | 10.0 | 14.0 | 0.00 | 0.56 | 0.56 | 89 | 1014.1 |
| 20260905232707 | 76 | 42 | 8.0 | 17.0 | 0.00 | 0.56 | 0.56 | 89 | 1014.2 |
| 20260905232203 | 76 | 40 | 16.0 | 20.0 | 0.00 | 0.56 | 0.56 | 88 | 1014.2 |
| 20260905231658 | 77 | 46 | 9.0 | 13.0 | 0.00 | 0.56 | 0.56 | 87 | 1014.0 |
| 20260905231154 | 77 | 33 | 16.0 | 17.0 | 0.00 | 0.56 | 0.56 | 88 | 1013.7 |
| 20260905230650 | 77 | 69 | 9.0 | 17.0 | 0.00 | 0.56 | 0.56 | 87 | 1013.8 |
| 20260905230148 | 78 | 61 | 9.0 | 14.0 | 0.00 | 0.56 | 0.56 | 87 | 1013.6 |
| 20260905225647 | 78 | 54 | 9.0 | 12.0 | 0.00 | 0.56 | 0.56 | 86 | 1013.5 |
| 20260905225142 | 78 | 16 | 9.0 | 17.0 | 0.00 | 0.56 | 0.56 | 85 | 1013.3 |
| 20260905224641 | 79 | 63 | 9.0 | 17.0 | 0.00 | 0.56 | 0.56 | 85 | 1013.3 |
| 20260905224136 | 79 | 61 | 10.0 | 14.0 | 0.00 | 0.56 | 0.56 | 85 | 1013.0 |
| 20260905223633 | 79 | 56 | 11.0 | 23.0 | 0.00 | 0.56 | 0.56 | 84 | 1013.0 |
| 20260905223129 | 80 | 32 | 10.0 | 15.0 | 0.00 | 0.56 | 0.56 | 83 | 1013.1 |
| 20260905222625 | 81 | 67 | 9.0 | 12.0 | 0.00 | 0.56 | 0.56 | 81 | 1013.0 |
| 20260905222120 | 80 | 30 | 12.0 | 14.0 | 0.00 | 0.56 | 0.56 | 82 | 1012.9 |
| 20260905221615 | 81 | 33 | 7.0 | 11.0 | 0.00 | 0.56 | 0.56 | 81 | 1012.8 |
| 20260905221112 | 80 | 41 | 12.0 | 15.0 | 0.00 | 0.56 | 0.56 | 82 | 1012.9 |
| 20260905220607 | 80 | 51 | 16.0 | 16.0 | 0.00 | 0.56 | 0.56 | 83 | 1013.0 |
| 20260905220103 | 80 | 42 | 9.0 | 13.0 | 0.00 | 0.56 | 0.56 | 84 | 1012.7 |
| 20260905215602 | 79 | 29 | 13.0 | 20.0 | 0.00 | 0.56 | 0.56 | 85 | 1012.7 |
| 20260905215058 | 80 | 54 | 8.0 | 14.0 | 0.00 | 0.56 | 0.56 | 84 | 1012.8 |
| 20260905214555 | 80 | 18 | 17.0 | 20.0 | 0.00 | 0.56 | 0.56 | 83 | 1012.7 |
| 20260905214054 | 81 | 27 | 16.0 | 16.0 | 0.00 | 0.56 | 0.56 | 83 | 1012.5 |
| 20260905213550 | 82 | 50 | 11.0 | 14.0 | 0.00 | 0.56 | 0.56 | 83 | 1012.6 |
| 20260905213045 | 81 | 31 | 13.0 | 16.0 | 0.00 | 0.56 | 0.56 | 82 | 1012.6 |
| 20260905212545 | 81 | 37 | 11.0 | 17.0 | 0.00 | 0.56 | 0.56 | 83 | 1012.3 |
| 20260905212045 | 82 | 55 | 7.0 | 15.0 | 0.00 | 0.56 | 0.56 | 84 | 1012.3 |
| 20260905211540 | 82 | 46 | 7.0 | 16.0 | 0.00 | 0.56 | 0.56 | 82 | 1012.4 |
| 20260905211036 | 83 | 46 | 10.0 | 13.0 | 0.00 | 0.56 | 0.56 | 81 | 1012.6 |
| 20260905210532 | 83 | 55 | 8.0 | 13.0 | 0.00 | 0.56 | 0.56 | 81 | 1012.4 |
| 20260905210032 | 85 | 57 | 8.0 | 9.0 | 0.00 | 0.56 | 0.56 | 78 | 1012.7 |
| 20260905205531 | 84 | 39 | 7.0 | 12.0 | 0.00 | 0.56 | 0.56 | 80 | 1012.9 |
| 20260905205030 | 84 | 63 | 10.0 | 14.0 | 0.00 | 0.56 | 0.56 | 78 | 1012.7 |
| 20260905204525 | 84 | 57 | 7.0 | 14.0 | 0.00 | 0.56 | 0.56 | 80 | 1012.9 |
| 20260905204021 | 85 | 65 | 8.0 | 12.0 | 0.00 | 0.56 | 0.56 | 77 | 1012.8 |
| 20260905203520 | 86 | 33 | 6.0 | 9.0 | 0.00 | 0.56 | 0.56 | 76 | 1012.8 |
| 20260905203016 | 85 | 58 | 13.0 | 13.0 | 0.00 | 0.56 | 0.56 | 78 | 1013.0 |
| 20260905202511 | 84 | 58 | 7.0 | 11.0 | 0.00 | 0.56 | 0.56 | 79 | 1013.1 |
| 20260905202007 | 85 | 4 | 5.0 | 8.0 | 0.00 | 0.56 | 0.56 | 76 | 1013.3 |
| 20260905201502 | 86 | 57 | 6.0 | 9.0 | 0.00 | 0.56 | 0.56 | 76 | 1013.5 |
| 20260905201001 | 85 | 60 | 7.0 | 10.0 | 0.00 | 0.56 | 0.56 | 77 | 1013.2 |
| 20260905200457 | 85 | 84 | 7.0 | 13.0 | 0.00 | 0.56 | 0.56 | 77 | 1013.3 |
| 20260905195955 | 84 | 72 | 8.0 | 10.0 | 0.00 | 0.56 | 0.56 | 79 | 1013.3 |
| 20260905195451 | 84 | 45 | 8.0 | 10.0 | 0.00 | 0.56 | 0.56 | 78 | 1013.1 |
| 20260905194946 | 85 | 72 | 6.0 | 9.0 | 0.00 | 0.56 | 0.56 | 79 | 1013.2 |
| 20260905194446 | 86 | 76 | 9.0 | 9.0 | 0.00 | 0.56 | 0.56 | 78 | 1013.5 |
| 20260905193941 | 83 | 49 | 6.0 | 10.0 | 0.00 | 0.56 | 0.56 | 81 | 1013.3 |
| 20260905193440 | 82 | 50 | 8.0 | 14.0 | 0.00 | 0.56 | 0.56 | 82 | 1013.3 |
| 20260905192936 | 82 | 57 | 8.0 | 10.0 | 0.00 | 0.56 | 0.56 | 81 | 1013.6 |
| 20260905192431 | 82 | 73 | 4.0 | 10.0 | 0.00 | 0.56 | 0.56 | 82 | 1013.3 |
| 20260905191926 | 84 | 71 | 6.0 | 9.0 | 0.00 | 0.56 | 0.56 | 80 | 1013.5 |
| 20260905191425 | 84 | 83 | 9.0 | 9.0 | 0.00 | 0.56 | 0.56 | 80 | 1013.3 |
| 20260905190920 | 86 | 78 | 7.0 | 10.0 | 0.00 | 0.56 | 0.56 | 77 | 1013.2 |
| 20260905190417 | 85 | 68 | 7.0 | 9.0 | 0.00 | 0.56 | 0.56 | 76 | 1013.6 |
| 20260905185916 | 84 | 68 | 7.0 | 9.0 | 0.00 | 0.56 | 0.56 | 78 | 1013.8 |
| 20260905185412 | 82 | 91 | 7.0 | 9.0 | 0.00 | 0.56 | 0.56 | 82 | 1013.6 |
| 20260905184910 | 84 | 88 | 6.0 | 8.0 | 0.00 | 0.56 | 0.56 | 79 | 1013.6 |
| 20260905184411 | 85 | 73 | 6.0 | 8.0 | 0.00 | 0.56 | 0.56 | 78 | 1013.6 |
| 20260905183909 | 83 | 43 | 6.0 | 9.0 | 0.00 | 0.56 | 0.56 | 80 | 1013.7 |
| 20260905183404 | 81 | 111 | 6.0 | 8.0 | 0.00 | 0.56 | 0.56 | 83 | 1013.8 |
| 20260905182900 | 81 | 137 | 6.0 | 9.0 | 0.00 | 0.56 | 0.56 | 81 | 1013.7 |
| 20260905182358 | 83 | 102 | 6.0 | 9.0 | 0.00 | 0.56 | 0.56 | 80 | 1013.9 |
| 20260905181855 | 83 | 125 | 6.0 | 10.0 | 0.00 | 0.56 | 0.56 | 79 | 1013.9 |
| 20260905181354 | 87 | 113 | 5.0 | 11.0 | 0.00 | 0.56 | 0.56 | 74 | 1013.8 |
| 20260905180854 | 84 | 92 | 5.0 | 10.0 | 0.00 | 0.56 | 0.56 | 79 | 1013.9 |
| 20260905180349 | 84 | 95 | 6.0 | 10.0 | 0.00 | 0.56 | 0.56 | 78 | 1013.8 |
| 20260905175844 | 82 | 89 | 7.0 | 11.0 | 0.00 | 0.56 | 0.56 | 81 | 1014.1 |
| 20260905175343 | 82 | 92 | 7.0 | 9.0 | 0.00 | 0.56 | 0.56 | 81 | 1013.9 |
| 20260905174839 | 81 | 105 | 7.0 | 8.0 | 0.00 | 0.56 | 0.56 | 81 | 1014.0 |
| 20260905174335 | 84 | 79 | 7.0 | 9.0 | 0.00 | 0.56 | 0.56 | 79 | 1014.0 |
| 20260905173830 | 82 | 86 | 4.0 | 7.0 | 0.00 | 0.56 | 0.56 | 80 | 1013.9 |
| 20260905173326 | 84 | 89 | 8.0 | 10.0 | 0.00 | 0.56 | 0.56 | 77 | 1014.1 |
| 20260905172826 | 83 | 99 | 7.0 | 8.0 | 0.00 | 0.56 | 0.56 | 77 | 1014.0 |
| 20260905172324 | 87 | 87 | 6.0 | 9.0 | 0.00 | 0.56 | 0.56 | 74 | 1014.0 |
| 20260905171820 | 84 | 76 | 8.0 | 9.0 | 0.00 | 0.56 | 0.56 | 76 | 1014.2 |
| 20260905171317 | 81 | 111 | 6.0 | 8.0 | 0.00 | 0.56 | 0.56 | 80 | 1014.3 |
| 20260905170813 | 84 | 70 | 7.0 | 9.0 | 0.00 | 0.56 | 0.56 | 77 | 1014.4 |
| 20260905170309 | 84 | 66 | 7.0 | 8.0 | 0.00 | 0.56 | 0.56 | 79 | 1014.3 |
| 20260905165808 | 84 | 89 | 8.0 | 8.0 | 0.00 | 0.56 | 0.56 | 78 | 1014.4 |
| 20260905165306 | 83 | 71 | 7.0 | 9.0 | 0.00 | 0.56 | 0.56 | 77 | 1014.5 |
| 20260905164803 | 81 | 101 | 6.0 | 9.0 | 0.00 | 0.56 | 0.56 | 81 | 1014.4 |
| 20260905164258 | 81 | 78 | 6.0 | 10.0 | 0.00 | 0.56 | 0.56 | 81 | 1014.6 |
| 20260905163754 | 80 | 117 | 7.0 | 11.0 | 0.00 | 0.56 | 0.56 | 83 | 1014.4 |
| 20260905163250 | 80 | 120 | 5.0 | 8.0 | 0.00 | 0.56 | 0.56 | 82 | 1014.3 |
| 20260905162746 | 80 | 122 | 6.0 | 11.0 | 0.00 | 0.56 | 0.56 | 83 | 1014.6 |
| 20260905162245 | 79 | 138 | 10.0 | 11.0 | 0.00 | 0.56 | 0.56 | 83 | 1014.6 |
| 20260905161740 | 80 | 96 | 8.0 | 10.0 | 0.00 | 0.56 | 0.56 | 85 | 1014.4 |
| 20260905161239 | 79 | 103 | 6.0 | 9.0 | 0.00 | 0.56 | 0.56 | 85 | 1014.6 |
| 20260905160738 | 79 | 91 | 7.0 | 10.0 | 0.00 | 0.56 | 0.56 | 86 | 1014.4 |
| 20260905160237 | 78 | 83 | 7.0 | 10.0 | 0.00 | 0.56 | 0.56 | 87 | 1014.6 |
| 20260905155732 | 79 | 92 | 6.0 | 9.0 | 0.00 | 0.56 | 0.56 | 86 | 1014.5 |
| 20260905155231 | 79 | 79 | 8.0 | 9.0 | 0.00 | 0.56 | 0.56 | 85 | 1014.6 |
| 20260905154725 | 78 | 75 | 5.0 | 10.0 | 0.00 | 0.56 | 0.56 | 86 | 1014.8 |
| 20260905154221 | 77 | 81 | 9.0 | 9.0 | 0.00 | 0.56 | 0.56 | 88 | 1014.6 |
| 20260905153716 | 78 | 76 | 9.0 | 10.0 | 0.00 | 0.56 | 0.56 | 85 | 1014.7 |
| 20260905153212 | 77 | 73 | 9.0 | 10.0 | 0.00 | 0.56 | 0.56 | 89 | 1014.5 |
| 20260905152707 | 76 | 75 | 7.0 | 10.0 | 0.00 | 0.56 | 0.56 | 89 | 1014.7 |
| 20260905152201 | 77 | 66 | 9.0 | 9.0 | 0.00 | 0.56 | 0.56 | 88 | 1014.8 |
| 20260905151701 | 77 | 71 | 8.0 | 9.0 | 0.00 | 0.56 | 0.56 | 88 | 1014.6 |
| 20260905151157 | 77 | 79 | 7.0 | 11.0 | 0.00 | 0.56 | 0.56 | 89 | 1014.6 |
| 20260905150652 | 76 | 89 | 9.0 | 10.0 | 0.00 | 0.56 | 0.56 | 89 | 1014.5 |
| 20260905150150 | 76 | 81 | 7.0 | 9.0 | 0.00 | 0.56 | 0.56 | 90 | 1014.4 |
| 20260905145648 | 76 | 69 | 6.0 | 9.0 | 0.00 | 0.56 | 0.56 | 90 | 1014.5 |
| 20260905145143 | 76 | 73 | 7.0 | 10.0 | 0.00 | 0.56 | 0.56 | 91 | 1014.4 |
| 20260905144637 | 75 | 69 | 7.0 | 8.0 | 0.00 | 0.56 | 0.56 | 93 | 1014.3 |
| 20260905144137 | 74 | 97 | 9.0 | 9.0 | 0.00 | 0.56 | 0.56 | 94 | 1014.2 |
| 20260905143632 | 73 | 81 | 7.0 | 8.0 | 0.00 | 0.56 | 0.56 | 95 | 1014.2 |
| 20260905143132 | 72 | 89 | 6.0 | 8.0 | 0.00 | 0.56 | 0.56 | 95 | 1014.2 |
| 20260905142630 | 72 | 70 | 8.0 | 9.0 | 0.00 | 0.56 | 0.56 | 95 | 1014.4 |
| 20260905142131 | 72 | 106 | 5.0 | 9.0 | 0.00 | 0.56 | 0.56 | 95 | 1014.3 |
| 20260905141630 | 71 | 86 | 8.0 | 11.0 | 0.00 | 0.56 | 0.56 | 95 | 1014.1 |
| 20260905141127 | 70 | 82 | 11.0 | 13.0 | 0.00 | 0.56 | 0.56 | 95 | 1014.3 |
| 20260905140622 | 70 | 132 | 7.0 | 7.0 | 0.00 | 0.56 | 0.56 | 95 | 1014.1 |
| 20260905140121 | 70 | 132 | 7.0 | 7.0 | 0.00 | 0.56 | 0.56 | 96 | 1014.0 |
| 20260905135616 | 69 | 132 | 7.0 | 7.0 | 0.00 | 0.56 | 0.56 | 96 | 1014.0 |
| 20260905135112 | 70 | 132 | 7.0 | 7.0 | 0.00 | 0.56 | 0.56 | 96 | 1014.0 |
| 20260905134606 | 69 | 132 | 7.0 | 7.0 | 0.00 | 0.56 | 0.56 | 96 | 1014.1 |
| 20260905134105 | 69 | 132 | 7.0 | 7.0 | 0.00 | 0.56 | 0.56 | 96 | 1014.2 |
| 20260905133601 | 69 | 132 | 7.0 | 7.0 | 0.00 | 0.56 | 0.56 | 96 | 1014.0 |
| 20260905133100 | 69 | 132 | 7.0 | 7.0 | 0.00 | 0.56 | 0.56 | 96 | 1014.0 |
| 20260905132600 | 69 | 132 | 7.0 | 7.0 | 0.00 | 0.56 | 0.56 | 96 | 1014.0 |
| 20260905132055 | 70 | 132 | 7.0 | 7.0 | 0.00 | 0.56 | 0.56 | 96 | 1014.2 |
| 20260905131550 | 70 | 132 | 7.0 | 7.0 | 0.00 | 0.56 | 0.56 | 96 | 1014.1 |
| 20260905131046 | 70 | 132 | 7.0 | 7.0 | 0.00 | 0.56 | 0.56 | 96 | 1013.8 |
| 20260905130545 | 70 | 132 | 7.0 | 7.0 | 0.00 | 0.56 | 0.56 | 97 | 1013.7 |
| 20260905130040 | 70 | 132 | 7.0 | 7.0 | 0.00 | 0.56 | 0.56 | 96 | 1013.9 |
| 20260905125539 | 70 | 132 | 7.0 | 7.0 | 0.00 | 0.56 | 0.56 | 96 | 1013.6 |
| 20260905125035 | 70 | 132 | 7.0 | 7.0 | 0.00 | 0.56 | 0.56 | 96 | 1013.9 |
| 20260905124532 | 70 | 132 | 7.0 | 7.0 | 0.00 | 0.56 | 0.56 | 96 | 1013.6 |
| 20260905124027 | 70 | 132 | 7.0 | 7.0 | 0.00 | 0.56 | 0.56 | 96 | 1013.8 |
| 20260905123523 | 69 | 132 | 7.0 | 7.0 | 0.00 | 0.56 | 0.56 | 96 | 1013.7 |
| 20260905123020 | 69 | 132 | 7.0 | 7.0 | 0.02 | 0.56 | 0.56 | 96 | 1013.6 |
| 20260905122519 | 69 | 132 | 7.0 | 7.0 | 0.00 | 0.55 | 0.55 | 96 | 1013.6 |
| 20260905122014 | 69 | 132 | 7.0 | 7.0 | 0.00 | 0.55 | 0.55 | 96 | 1013.8 |
| 20260905121515 | 69 | 132 | 7.0 | 7.0 | 0.00 | 0.55 | 0.55 | 96 | 1013.8 |
| 20260905121009 | 69 | 132 | 7.0 | 7.0 | 0.00 | 0.55 | 0.55 | 96 | 1013.7 |
| 20260905120509 | 69 | 132 | 7.0 | 7.0 | 0.00 | 0.55 | 0.55 | 96 | 1013.8 |
| 20260905120004 | 69 | 132 | 7.0 | 7.0 | 0.00 | 0.55 | 0.55 | 96 | 1013.8 |
| 20260905115503 | 69 | 132 | 7.0 | 7.0 | 0.00 | 0.55 | 0.55 | 96 | 1013.3 |
| 20260905114958 | 69 | 132 | 7.0 | 7.0 | 0.00 | 0.55 | 0.55 | 96 | 1013.5 |
| 20260905114458 | 69 | 132 | 7.0 | 7.0 | 0.00 | 0.55 | 0.55 | 96 | 1013.5 |
| 20260905113956 | 69 | 132 | 7.0 | 7.0 | 0.00 | 0.55 | 0.55 | 96 | 1013.5 |
| 20260905113452 | 69 | 132 | 7.0 | 7.0 | 0.00 | 0.55 | 0.55 | 96 | 1013.6 |
| 20260905112947 | 69 | 132 | 7.0 | 7.0 | 0.00 | 0.55 | 0.55 | 96 | 1013.5 |
| 20260905112442 | 69 | 132 | 7.0 | 7.0 | 0.00 | 0.55 | 0.55 | 96 | 1013.3 |
| 20260905111938 | 69 | 132 | 7.0 | 7.0 | 0.09 | 0.55 | 0.55 | 96 | 1013.5 |
| 20260905111438 | 69 | 132 | 7.0 | 7.0 | 0.17 | 0.55 | 0.55 | 96 | 1013.3 |
| 20260905110932 | 69 | 132 | 7.0 | 7.0 | 0.07 | 0.53 | 0.53 | 96 | 1013.3 |
| 20260905110431 | 69 | 132 | 7.0 | 7.0 | 0.00 | 0.52 | 0.52 | 96 | 1013.2 |
| 20260905105931 | 69 | 132 | 7.0 | 7.0 | 0.00 | 0.52 | 0.52 | 95 | 1013.6 |
| 20260905105426 | 69 | 132 | 7.0 | 7.0 | 0.00 | 0.52 | 0.52 | 95 | 1013.3 |
| 20260905104926 | 69 | 132 | 7.0 | 7.0 | 0.00 | 0.52 | 0.52 | 95 | 1013.3 |
| 20260905104422 | 69 | 132 | 7.0 | 7.0 | 0.00 | 0.52 | 0.52 | 95 | 1013.5 |
| 20260905103922 | 68 | 132 | 7.0 | 7.0 | 0.00 | 0.52 | 0.52 | 95 | 1013.3 |
| 20260905103417 | 68 | 132 | 7.0 | 7.0 | 0.00 | 0.52 | 0.52 | 95 | 1013.6 |
| 20260905102913 | 69 | 132 | 7.0 | 7.0 | 0.00 | 0.52 | 0.52 | 95 | 1013.3 |
| 20260905102409 | 69 | 132 | 7.0 | 7.0 | 0.00 | 0.52 | 0.52 | 95 | 1013.6 |
| 20260905101909 | 69 | 132 | 7.0 | 7.0 | 0.00 | 0.52 | 0.52 | 95 | 1013.8 |
| 20260905101408 | 69 | 132 | 7.0 | 7.0 | 0.00 | 0.52 | 0.52 | 95 | 1013.6 |
| 20260905100903 | 69 | 132 | 7.0 | 7.0 | 0.00 | 0.52 | 0.52 | 95 | 1014.1 |
| 20260905100359 | 69 | 132 | 7.0 | 7.0 | 0.00 | 0.52 | 0.52 | 95 | 1013.9 |
| 20260905095858 | 69 | 132 | 7.0 | 7.0 | 0.00 | 0.52 | 0.52 | 95 | 1013.2 |
| 20260905095352 | 69 | 132 | 7.0 | 7.0 | 0.00 | 0.52 | 0.52 | 95 | 1013.0 |
| 20260905094847 | 69 | 132 | 7.0 | 7.0 | 0.00 | 0.52 | 0.52 | 95 | 1013.2 |
| 20260905094343 | 69 | 132 | 7.0 | 7.0 | 0.00 | 0.52 | 0.52 | 95 | 1013.3 |
| 20260905093841 | 69 | 132 | 7.0 | 7.0 | 0.00 | 0.52 | 0.52 | 95 | 1013.1 |
| 20260905093337 | 69 | 132 | 7.0 | 7.0 | 0.00 | 0.52 | 0.52 | 95 | 1013.6 |
| 20260905092833 | 69 | 132 | 7.0 | 7.0 | 0.00 | 0.52 | 0.52 | 95 | 1013.9 |
| 20260905092333 | 69 | 132 | 7.0 | 7.0 | 0.00 | 0.52 | 0.52 | 95 | 1014.0 |
| 20260905091828 | 69 | 132 | 7.0 | 7.0 | 0.00 | 0.52 | 0.52 | 95 | 1014.0 |
| 20260905091328 | 69 | 132 | 7.0 | 7.0 | 0.00 | 0.52 | 0.52 | 95 | 1014.1 |
| 20260905090826 | 69 | 132 | 7.0 | 7.0 | 0.00 | 0.52 | 0.52 | 95 | 1013.9 |
| 20260905090323 | 69 | 132 | 7.0 | 7.0 | 0.00 | 0.52 | 0.52 | 95 | 1014.3 |
| 20260905085822 | 69 | 128 | 7.0 | 11.0 | 0.00 | 0.52 | 0.52 | 95 | 1014.2 |
| 20260905085316 | 68 | 141 | 4.0 | 8.0 | 0.38 | 0.52 | 0.52 | 95 | 1014.3 |
| 20260905084812 | 69 | 110 | 5.0 | 11.0 | 0.69 | 0.52 | 0.52 | 95 | 1014.1 |
| 20260905084311 | 68 | 60 | 7.0 | 10.0 | 1.32 | 0.46 | 0.46 | 95 | 1014.6 |
| 20260905083806 | 68 | 31 | 9.0 | 17.0 | 1.68 | 0.37 | 0.37 | 95 | 1013.6 |